METEOR 1-5 DEB

Satellite information

Favourite Embed

Satellite Type and Status

DEBRISIN ORBIT

Key statistics

Satellite METEOR 1-5 DEB at a glance.

Uptime

20206

Days in orbit

Revolutions

≈ 14.3

Per day

Orbit

LEO

Low Earth Orbit

Inclination

81.2

Latest

Satellite identification and parameters

Extended collection of information and parameters for METEOR 1-5 DEB.

Object identification

Identified? True

Debris? True

Object name: METEOR 1-5 DEB

International designator: 1970-047E

Object number (NORAD): 58398

Object ID (CCSDS): 58398

Country: COMMONWEALTH OF INDEPENDENT STATES (CIS)

Current information (Y/N): Y

RCS size: SMALL

Orbital parameters

Period: 100.838 minutes

Inclination: 81.2056 deg

SMA: 7176.427 km

Apoapsis: 836.141 km

Periapsis: 760.442 km

RAAN: 106.3858 deg

Eccentricy: 0.0052742

Argument of periapsis: 20.8857 deg

Mean anomaly: 339.4461 deg

Mean motion: 14.28040075 rev/day

Mean motion (dot): 0.00006834 rev/day2

B* drag term: 0.0027068026 1/REarth

Two-line elements (TLE)

Creation date: Oct. 18, 2025, 2:17 a.m.

Reference frame: TEME

Reference center: EARTH

Epoch: Oct. 17, 2025, 11:12 p.m. UTC

TLE line 0: 0 METEOR 1-5 DEB

TLE line 1: 1 58398U 70047E 25290.96707609 .00006834 00000-0 27068-2 0 9999

TLE line 2: 2 58398 81.2056 106.3858 0052742 20.8857 339.4461 14.28040075102260

Live tracking on map

Real-time ground track for satellite METEOR 1-5 DEB.

In-orbit conjunctions

A list of the most updated potential collisions computed for object METEOR 1-5 DEB.

Target Orbit TCA Probability of collision Miss distance Type
NOAA 17 DEB SSO 2025-05-16 07:21:44 0.0001130763 169.0 (m) DEBRIS
CZ-6A DEB SSO 2025-04-19 10:36:51 0.0001346896 235.0 (m) DEBRIS
DMSP 5D-2 F13 DEB SSO 2025-02-19 16:03:30 0.0001207528 114.0 (m) DEBRIS
CZ-6A DEB LEO 2024-12-19 08:57:27 0.001595228 72.0 (m) DEBRIS
FENGYUN 1C DEB SSO 2024-09-25 11:13:15 0.0005424878 275.0 (m) DEBRIS

Associated space launch

The Meteor-1 series was the first series of Soviet meteorological satellites.

METEOR 1-5 DEB was lifted into orbit during the mission ‘Vostok 8A92M | Meteor-1 5 (17L)’, on board a Vostok 8A92M space rocket.

The launch took place on June 23, 1970, 2:15 p.m. from 41/1.

For more information about the launch, click the button.

Launch to space Vostok 8A92M | Meteor-1 5 (17L)
Vostok 8A92M | Meteor-1 5 (17L)

Agency: N/A

Status: Launch Successful

Launch date: June 23, 1970, 2:15 p.m. UTC

Rocket: Vostok 8A92M

Launch pad: 41/1

Location: Plesetsk Cosmodrome, Russian Federation

...

Latest news about this satellite

There are no fresh news available about this satellite. Check back as we update our databases every day.


Newsletter sign-up

Weekly statistics, charts and insights to help you stay on top of the space industry.